Location: Newark
(45.2500°N, 7.5833°E)
Time: 00:10:38
(UTC+00:00)

Vanguard 3 - Pass Details

Date: 31 January 2020
Orbit: 508 x 3263 km, 33.3° (Epoch: 23 February)

Event Time Altitude Azimuth Distance (km) Brightness Sun altitude
Rises 21:43:27 0° 279° (W) 7,172 12.5 -52.6°
Reaches altitude 10° 21:50:06 10° 267° (W) 5,931 11.8 -53.5°
Enters shadow 22:00:48 22° 230° (SW) 4,354 10.7 -54.9°
Maximum altitude 22:01:42 22° 226° (SW) 4,279 - -55.0°
Drops below altitude 10° 22:10:34 10° 182° (S) 4,384 - -56.1°
Sets 22:14:32 0° 167° (SSE) 4,941 - -56.5°
